Hourly Weather Kimch'aek

Today, 12 July, Sunday

Time Temperature Precipitation Wind Pressure Humidity
00:00 +17°C° 0 mm 0 mps 759 mmHg 96%
01:00 +17°C° 0 mm 0 mps 758 mmHg 95%
02:00 +17°C° 0 mm 0 mps 758 mmHg 95%
03:00 +16°C° 0 mm 0 mps 758 mmHg 95%
04:00 +19°C° 0 mm 1 mps 758 mmHg 94%
05:00 +19°C° 0 mm 1 mps 759 mmHg 94%
06:00 +19°C° 0 mm 1 mps 759 mmHg 93%
07:00 +21°C° 0 mm 1 mps 759 mmHg 87%
08:00 +22°C° 0 mm 1 mps 759 mmHg 81%
09:00 +24°C° 0 mm 1 mps 759 mmHg 74%
10:00 +25°C° 0 mm 2 mps 759 mmHg 72%
11:00 +25°C° 0 mm 2 mps 759 mmHg 71%
12:00 +26°C° 0 mm 3 mps 759 mmHg 69%
13:00 +26°C° 0 mm 3 mps 758 mmHg 70%
14:00 +26°C° 0 mm 2 mps 758 mmHg 71%
15:00 +26°C° 0 mm 2 mps 758 mmHg 71%
16:00 +25°C° 0 mm 2 mps 758 mmHg 74%
17:00 +24°C° 0 mm 2 mps 758 mmHg 77%
18:00 +23°C° 0 mm 2 mps 758 mmHg 80%
19:00 +21°C° 0 mm 2 mps 758 mmHg 85%
20:00 +21°C° 0 mm 1 mps 758 mmHg 90%
21:00 +18°C° 0 mm 0 mps 759 mmHg 95%
22:00 +17°C° 0 mm 0 mps 759 mmHg 95%
23:00 +17°C° 0 mm 0 mps 758 mmHg 96%

Tomorrow, 13 July, Monday

Time Temperature Precipitation Wind Pressure Humidity
00:00 +17°C° 0 mm 0 mps 758 mmHg 96%
01:00 +17°C° 0 mm 0 mps 758 mmHg 96%
02:00 +17°C° 0 mm 0 mps 758 mmHg 95%
03:00 +17°C° 0 mm 0 mps 758 mmHg 95%
04:00 +19°C° 0 mm 1 mps 758 mmHg 95%
05:00 +19°C° 0 mm 1 mps 758 mmHg 95%
06:00 +18°C° 0 mm 2 mps 758 mmHg 94%
07:00 +20°C° 0 mm 2 mps 758 mmHg 88%
08:00 +21°C° 0 mm 2 mps 758 mmHg 82%
09:00 +23°C° 0 mm 2 mps 758 mmHg 75%
10:00 +24°C° 0 mm 2 mps 758 mmHg 73%
11:00 +25°C° 0 mm 3 mps 757 mmHg 70%
12:00 +25°C° 0 mm 3 mps 757 mmHg 67%
13:00 +26°C° 0 mm 3 mps 757 mmHg 66%
14:00 +26°C° 0 mm 3 mps 756 mmHg 65%
15:00 +26°C° 0 mm 3 mps 756 mmHg 65%
16:00 +25°C° 0 mm 3 mps 756 mmHg 69%
17:00 +24°C° 0 mm 3 mps 756 mmHg 74%
18:00 +22°C° 0 mm 3 mps 756 mmHg 78%
19:00 +21°C° 0 mm 2 mps 756 mmHg 84%
20:00 +20°C° 0 mm 2 mps 756 mmHg 90%
21:00 +19°C° 0 mm 1 mps 756 mmHg 96%
22:00 +18°C° 0 mm 2 mps 756 mmHg 96%
23:00 +18°C° 0 mm 2 mps 756 mmHg 96%

Day after tomorrow, 14 July, Tuesday

Time Temperature Precipitation Wind Pressure Humidity
00:00 +17°C° 0 mm 2 mps 756 mmHg 96%
01:00 +17°C° 0 mm 2 mps 755 mmHg 96%
02:00 +17°C° 0 mm 2 mps 755 mmHg 96%
03:00 +17°C° 0 mm 2 mps 755 mmHg 95%
04:00 +17°C° 0 mm 2 mps 755 mmHg 94%
05:00 +17°C° 0 mm 2 mps 755 mmHg 92%
06:00 +18°C° 0 mm 3 mps 755 mmHg 91%
07:00 +19°C° 0 mm 2 mps 755 mmHg 84%
08:00 +21°C° 0 mm 2 mps 755 mmHg 78%
09:00 +23°C° 0 mm 2 mps 755 mmHg 71%
10:00 +24°C° 0 mm 3 mps 754 mmHg 67%
11:00 +26°C° 0 mm 4 mps 754 mmHg 63%
12:00 +27°C° 0 mm 5 mps 754 mmHg 59%
13:00 +27°C° 0 mm 5 mps 754 mmHg 60%
14:00 +27°C° 0 mm 5 mps 753 mmHg 60%
15:00 +27°C° 0 mm 5 mps 753 mmHg 61%
16:00 +26°C° 0 mm 4 mps 753 mmHg 65%
17:00 +25°C° 0 mm 3 mps 753 mmHg 70%
18:00 +22°C° 0 mm 3 mps 753 mmHg 75%
19:00 +21°C° 0 mm 2 mps 753 mmHg 82%
20:00 +19°C° 0 mm 2 mps 754 mmHg 88%
21:00 +18°C° 0 mm 1 mps 754 mmHg 95%
22:00 +18°C° 0 mm 1 mps 754 mmHg 93%
23:00 +18°C° 0 mm 1 mps 754 mmHg 92%

15 July, Wednesday

Time Temperature Precipitation Wind Pressure Humidity
00:00 +18°C° 0 mm 1 mps 754 mmHg 90%
01:00 +18°C° 0 mm 1 mps 754 mmHg 87%
02:00 +18°C° 0 mm 1 mps 754 mmHg 84%
03:00 +18°C° 0 mm 1 mps 754 mmHg 81%
04:00 +18°C° 0 mm 1 mps 754 mmHg 79%
05:00 +18°C° 0 mm 1 mps 754 mmHg 77%
06:00 +18°C° 0 mm 2 mps 754 mmHg 74%
07:00 +21°C° 0 mm 1 mps 754 mmHg 68%
08:00 +23°C° 0 mm 1 mps 754 mmHg 62%
09:00 +26°C° 0 mm 1 mps 754 mmHg 55%
10:00 +26°C° 0 mm 2 mps 754 mmHg 56%
11:00 +27°C° 0 mm 2 mps 754 mmHg 56%
12:00 +28°C° 0 mm 3 mps 754 mmHg 56%
13:00 +28°C° 0 mm 3 mps 754 mmHg 58%
14:00 +27°C° 0 mm 2 mps 753 mmHg 59%
15:00 +27°C° 0 mm 2 mps 753 mmHg 61%
16:00 +26°C° 0 mm 2 mps 753 mmHg 64%
17:00 +26°C° 0 mm 2 mps 753 mmHg 67%
18:00 +25°C° 0 mm 2 mps 753 mmHg 71%
19:00 +23°C° 0 mm 1 mps 753 mmHg 78%
20:00 +22°C° 0 mm 1 mps 753 mmHg 85%
21:00 +20°C° 0 mm 1 mps 754 mmHg 92%
22:00 +20°C° 0 mm 1 mps 754 mmHg 92%
23:00 +20°C° 0 mm 1 mps 754 mmHg 93%

16 July, Thursday

Time Temperature Precipitation Wind Pressure Humidity
00:00 +19°C° 0 mm 1 mps 753 mmHg 93%
01:00 +19°C° 0 mm 1 mps 753 mmHg 93%
02:00 +19°C° 0 mm 1 mps 753 mmHg 94%
03:00 +19°C° 0 mm 1 mps 753 mmHg 94%
04:00 +19°C° 0 mm 1 mps 753 mmHg 93%
05:00 +20°C° 0 mm 1 mps 753 mmHg 92%
06:00 +20°C° 0 mm 1 mps 753 mmHg 92%
07:00 +22°C° 0 mm 1 mps 753 mmHg 84%
08:00 +24°C° 0 mm 1 mps 753 mmHg 77%
09:00 +26°C° 0 mm 2 mps 753 mmHg 69%
10:00 +27°C° 0 mm 2 mps 753 mmHg 67%
11:00 +28°C° 0 mm 3 mps 753 mmHg 66%
12:00 +29°C° 0 mm 4 mps 753 mmHg 64%
13:00 +29°C° 0.1 mm 4 mps 753 mmHg 64%
14:00 +28°C° 0.1 mm 4 mps 753 mmHg 65%
15:00 +28°C° 0.1 mm 4 mps 752 mmHg 65%
16:00 +27°C° 0.1 mm 4 mps 753 mmHg 69%
17:00 +26°C° 0.1 mm 3 mps 753 mmHg 73%
18:00 +26°C° 0.1 mm 3 mps 753 mmHg 77%
19:00 +24°C° 0 mm 3 mps 753 mmHg 83%
20:00 +21°C° 0 mm 2 mps 754 mmHg 89%
21:00 +20°C° 0 mm 2 mps 754 mmHg 96%
22:00 +20°C° 0 mm 2 mps 754 mmHg 96%
23:00 +20°C° 0 mm 2 mps 754 mmHg 96%

17 July, Friday

Time Temperature Precipitation Wind Pressure Humidity
00:00 +19°C° 0 mm 2 mps 754 mmHg 95%
01:00 +19°C° 0 mm 2 mps 754 mmHg 95%
02:00 +20°C° 0 mm 1 mps 754 mmHg 95%
03:00 +20°C° 0 mm 1 mps 754 mmHg 94%
04:00 +20°C° 0 mm 1 mps 754 mmHg 93%
05:00 +21°C° 0 mm 1 mps 754 mmHg 92%
06:00 +21°C° 0 mm 1 mps 754 mmHg 92%
07:00 +23°C° 0 mm 1 mps 755 mmHg 84%
08:00 +25°C° 0 mm 2 mps 755 mmHg 76%
09:00 +28°C° 0 mm 2 mps 755 mmHg 67%
10:00 +28°C° 0 mm 2 mps 755 mmHg 66%
11:00 +29°C° 0 mm 3 mps 755 mmHg 64%
12:00 +30°C° 0 mm 3 mps 755 mmHg 62%
13:00 +30°C° 0 mm 3 mps 755 mmHg 62%
14:00 +30°C° 0 mm 3 mps 755 mmHg 63%
15:00 +30°C° 0 mm 3 mps 754 mmHg 63%
16:00 +29°C° 0 mm 3 mps 755 mmHg 68%
17:00 +28°C° 0 mm 3 mps 755 mmHg 72%
18:00 +27°C° 0 mm 3 mps 755 mmHg 77%
19:00 +25°C° 0 mm 3 mps 755 mmHg 83%
20:00 +24°C° 0 mm 2 mps 756 mmHg 90%
21:00 +21°C° 0 mm 2 mps 756 mmHg 97%
22:00 +21°C° 0 mm 2 mps 756 mmHg 97%
23:00 +20°C° 0 mm 2 mps 756 mmHg 97%
Show more